Time_in_sec,Latitude,Longitude,Altitude,Nbsat,valid_data
1312470872.29460263,-0.00013443,0.00016873,694.66571045,5,1
1312470943.64843702,-0.00010446,0.00014641,838.10015869,3,1
1312470943.68844724,-0.00010443,0.00014640,838.19519043,3,1
1312470943.73748851,-0.00010441,0.00014639,838.25848389,3,1
1312470943.78740907,-0.00010418,0.00014651,838.33618164,3,1
1312470943.83672476,-0.00010436,0.00014636,838.41674805,3,1
1312470943.88727570,-0.00010413,0.00014648,838.49432373,3,1
1312470943.93929076,-0.00010431,0.00014634,838.57489014,3,1
1312470943.98731661,-0.00010409,0.00014646,838.65240479,3,1
1312470944.03542757,-0.00010427,0.00014631,838.73284912,3,1
1312470944.09641719,-0.00010404,0.00014643,838.81036377,3,1
1312470944.13629150,-0.00010401,0.00014642,838.90502930,3,1
1312470944.18835640,-0.00010399,0.00014641,838.96820068,3,1
1312470944.23632383,-0.00010417,0.00014626,839.04858398,3,1
1312470944.28727221,-0.00010394,0.00014639,839.12591553,3,1
1312470944.33529496,-0.00010412,0.00014624,839.20617676,3,1
1312470944.38523817,-0.00010390,0.00014636,839.28350830,3,1
1312470944.43627524,-0.00010408,0.00014622,839.36376953,3,1
1312470944.48521638,-0.00010385,0.00014634,839.44097900,3,1
1312470944.53634262,-0.00010403,0.00014619,839.52117920,3,1
1312470944.58420897,-0.00010380,0.00014631,839.59832764,3,1
1312470944.63530183,-0.00010398,0.00014617,839.67846680,3,1
1312470944.68727160,-0.00010375,0.00014629,839.75561523,3,1
1312470944.73543262,-0.00010393,0.00014614,839.83569336,3,1
1312470944.78449559,-0.00010371,0.00014626,839.91271973,3,1
1312470944.83557534,-0.00010389,0.00014612,839.99273682,3,1
1312470944.88444138,-0.00010366,0.00014624,840.06970215,3,1
1312470944.93572116,-0.00010384,0.00014609,840.14965820,3,1
1312470944.98840976,-0.00010361,0.00014622,840.22656250,3,1
1312470945.03587604,-0.00010379,0.00014607,840.30645752,3,1
1312470945.08728004,-0.00010357,0.00014619,840.38330078,3,1
1312470945.13639903,-0.00010374,0.00014605,840.46307373,3,1
1312470945.18444300,-0.00010352,0.00014617,840.53985596,3,1
1312470945.23638463,-0.00010370,0.00014602,840.61956787,3,1
1312470945.28841853,-0.00010347,0.00014614,840.69628906,4,1
1312470945.33539915,-0.00010365,0.00014600,840.77593994,4,1
1312470945.38842845,-0.00010342,0.00014612,840.85260010,4,1
1312470945.43540883,-0.00010360,0.00014597,840.93225098,4,1
1312470945.48727560,-0.00010338,0.00014609,841.00885010,4,1
1312470945.53547263,-0.00010356,0.00014595,841.08837891,4,1
1312470945.58740449,-0.00010333,0.00014607,841.16491699,4,1
1312470945.63539910,-0.00010351,0.00014593,841.24438477,4,1
1312470945.68741703,-0.00010328,0.00014605,841.32086182,4,1
1312470945.73547626,-0.00010346,0.00014590,841.40026855,4,1
1312470945.78842664,-0.00010324,0.00014602,841.47668457,4,1
1312470945.83629489,-0.00010342,0.00014588,841.55603027,4,1
1312470945.88728380,-0.00010319,0.00014600,841.63238525,4,1
1312470945.93539739,-0.00010337,0.00014585,841.71166992,4,1
1312470945.98843956,-0.00010314,0.00014597,841.78796387,4,1
1312470946.03532791,-0.00010332,0.00014583,841.86718750,4,1
1312470946.08729053,-0.00010310,0.00014595,841.94342041,4,1
1312470946.13534498,-0.00010328,0.00014581,842.02264404,4,1
1312470946.18728757,-0.00010305,0.00014593,842.09881592,4,1
1312470946.23629451,-0.00010323,0.00014578,842.17797852,4,1
1312470946.28729868,-0.00010300,0.00014590,842.25415039,4,1
1312470946.33530569,-0.00010318,0.00014576,842.33325195,4,1
1312470946.38741016,-0.00010296,0.00014588,842.40942383,4,1
1312470946.43530631,-0.00010314,0.00014573,842.48846436,4,1
1312470946.48740220,-0.00010291,0.00014585,842.56457520,4,1
1312470946.53531313,-0.00010309,0.00014571,842.64355469,4,1
1312470946.58731651,-0.00010286,0.00014583,842.71960449,4,1
1312470946.63673615,-0.00010304,0.00014569,842.79858398,4,1
1312470946.68727779,-0.00010282,0.00014581,842.87451172,4,1
1312470946.73672271,-0.00010300,0.00014566,842.95343018,4,1
1312470946.78451204,-0.00010277,0.00014578,843.02935791,4,1
1312470946.83637643,-0.00010295,0.00014564,843.10821533,4,1
1312470946.88437605,-0.00010272,0.00014576,843.18408203,4,1
1312470946.93596530,-0.00010290,0.00014561,843.26281738,4,1
1312470946.98729610,-0.00010268,0.00014574,843.33862305,4,1
1312470947.03665447,-0.00010285,0.00014559,843.41735840,4,1
1312470947.08727050,-0.00010263,0.00014571,843.49310303,4,1
1312470947.13547969,-0.00010281,0.00014557,843.57177734,4,1
1312470947.18436027,-0.00010258,0.00014569,843.64752197,4,1
1312470947.23672533,-0.00010276,0.00014554,843.72613525,4,1
1312470947.28437495,-0.00010254,0.00014566,843.80175781,4,1
1312470947.33664918,-0.00010271,0.00014552,843.88037109,4,1
1312470947.38511896,-0.00010249,0.00014564,843.95593262,4,1
1312470947.43668008,-0.00010267,0.00014550,844.03442383,4,1
1312470947.48727465,-0.00010244,0.00014562,844.10992432,4,1
1312470947.53670812,-0.00010262,0.00014547,844.18835449,4,1
1312470947.58436227,-0.00010240,0.00014559,844.26379395,4,1
1312470947.63663864,-0.00010257,0.00014545,844.34216309,4,1
1312470947.68443179,-0.00010235,0.00014557,844.41754150,4,1
1312470947.73710680,-0.00010253,0.00014543,844.49591064,4,1
1312470947.78433990,-0.00010230,0.00014555,844.57122803,4,1
1312470947.83640146,-0.00010248,0.00014540,844.64953613,4,1
1312470947.88727593,-0.00010226,0.00014552,844.72479248,4,1
1312470947.94338250,-0.00010243,0.00014538,844.80303955,4,1
1312470947.98443389,-0.00010221,0.00014550,844.87829590,4,1
1312470948.03634667,-0.00010239,0.00014536,844.95648193,4,1
1312470948.08441544,-0.00010216,0.00014548,845.03167725,4,1
1312470948.13628983,-0.00010234,0.00014533,845.10980225,4,1
1312470948.18444085,-0.00010212,0.00014545,845.18493652,4,1
1312470948.23530126,-0.00010229,0.00014531,845.26306152,4,1
1312470948.28727841,-0.00010207,0.00014543,845.33813477,4,1
1312470948.33530855,-0.00010225,0.00014529,845.41613770,4,1
1312470948.38443160,-0.00010202,0.00014541,845.49121094,4,1
1312470948.43527961,-0.00010220,0.00014526,845.56915283,4,1
1312470948.48842621,-0.00010198,0.00014539,845.64416504,4,1
1312470948.53628922,-0.00010215,0.00014524,845.72210693,4,1
1312470948.58842754,-0.00010193,0.00014536,845.79699707,4,1
1312470948.63539696,-0.00010211,0.00014522,845.87487793,4,1
1312470948.68725801,-0.00010188,0.00014534,845.94976807,4,1
1312470948.73541737,-0.00010206,0.00014520,846.02758789,4,1
1312470948.78842998,-0.00010184,0.00014532,846.10241699,4,1
1312470948.83540750,-0.00010201,0.00014517,846.18011475,4,1
1312470948.88842607,-0.00010179,0.00014530,846.25488281,4,1
1312470948.93540502,-0.00010197,0.00014515,846.33258057,4,1
1312470948.98732877,-0.00010174,0.00014527,846.40728760,4,1
1312470949.03642440,-0.00010192,0.00014513,846.48486328,4,1
1312470949.08726668,-0.00010170,0.00014525,846.55950928,4,1
1312470949.13637829,-0.00010187,0.00014510,846.63708496,4,1
1312470949.18729687,-0.00010165,0.00014523,846.71160889,4,1
1312470949.23530602,-0.00010183,0.00014508,846.78912354,4,1
1312470949.28730917,-0.00010160,0.00014520,846.86358643,4,1
1312470949.33675861,-0.00010178,0.00014506,846.94104004,4,1
1312470949.38742113,-0.00010156,0.00014518,847.01544189,4,1
1312470949.43548298,-0.00010173,0.00014504,847.09283447,4,1
1312470949.48728442,-0.00010151,0.00014516,847.16717529,4,1
1312470949.53531647,-0.00010168,0.00014501,847.24450684,4,1
1312470949.58741379,-0.00010146,0.00014514,847.31884766,4,1
1312470949.63639116,-0.00010164,0.00014499,847.39611816,4,1
1312470949.68741012,-0.00010141,0.00014511,847.47045898,4,1
1312470949.73673534,-0.00010159,0.00014497,847.54772949,4,1
1312470949.78729987,-0.00010137,0.00014509,847.62194824,4,1
1312470949.83671522,-0.00010154,0.00014494,847.69915771,4,1
1312470949.88728356,-0.00010132,0.00014507,847.77337646,4,1
1312470949.93930554,-0.00010150,0.00014492,847.85052490,4,1
1312470949.98733568,-0.00010127,0.00014505,847.92468262,4,1
1312470950.03533363,-0.00010145,0.00014490,848.00177002,4,1
1312470950.08731985,-0.00010123,0.00014502,848.07592773,4,1
1312470950.13531208,-0.00010140,0.00014488,848.15301514,4,1
1312470950.18743253,-0.00010118,0.00014500,848.22705078,4,1
1312470950.23530078,-0.00010136,0.00014485,848.30401611,4,1
1312470950.28727627,-0.00010113,0.00014498,848.37799072,4,1
1312470950.33535504,-0.00010131,0.00014483,848.45495605,4,1
1312470950.38739848,-0.00010109,0.00014496,848.52886963,4,1
1312470950.43527389,-0.00010126,0.00014481,848.60577393,4,1
1312470950.48740673,-0.00010104,0.00014493,848.67962646,4,1
1312470950.53537607,-0.00010122,0.00014479,848.75640869,4,1
1312470950.58728218,-0.00010099,0.00014491,848.83020020,4,1
1312470950.63530946,-0.00010117,0.00014476,848.90698242,4,1
1312470950.68428373,-0.00010095,0.00014489,848.98071289,4,1
1312470950.73530889,-0.00010112,0.00014474,849.05743408,4,1
1312470950.78733802,-0.00010090,0.00014486,849.13110352,4,1
1312470950.83527207,-0.00010108,0.00014472,849.20770264,4,1
1312470950.88728642,-0.00010085,0.00014484,849.28137207,4,1
1312470950.93637919,-0.00010103,0.00014469,849.35791016,4,1
1312470950.98732972,-0.00010081,0.00014482,849.43151855,4,1
1312470951.03533602,-0.00010098,0.00014467,849.50799561,4,1
1312470951.08426857,-0.00010076,0.00014480,849.58154297,4,1
1312470951.13534641,-0.00010094,0.00014465,849.65802002,4,1
1312470951.18730450,-0.00010071,0.00014477,849.73144531,4,1
1312470951.23531771,-0.00010089,0.00014463,849.80786133,4,1
1312470951.28732824,-0.00010067,0.00014475,849.88122559,4,1
1312470951.33532095,-0.00010084,0.00014460,849.95751953,4,1
1312470951.38733792,-0.00010062,0.00014473,850.03082275,4,1
1312470951.43529606,-0.00010080,0.00014458,850.10705566,4,1
1312470951.48728180,-0.00010058,0.00014470,850.18029785,4,1
1312470951.53540277,-0.00010075,0.00014456,850.25646973,4,1
1312470951.58443069,-0.00010053,0.00014468,850.32971191,4,1
1312470951.63660288,-0.00010070,0.00014453,850.40582275,4,1
1312470951.68442965,-0.00010048,0.00014466,850.47894287,4,1
1312470951.73540831,-0.00010066,0.00014451,850.55499268,4,1
1312470951.78731561,-0.00010044,0.00014464,850.62805176,4,1
1312470951.83539963,-0.00010061,0.00014449,850.70404053,4,1
1312470951.88727283,-0.00010039,0.00014461,850.77703857,4,1
1312470951.93686986,-0.00010056,0.00014447,850.85296631,4,1
1312470951.98742652,-0.00010034,0.00014459,850.92590332,4,1
1312470952.03644013,-0.00010052,0.00014444,851.00177002,4,1
1312470952.08734202,-0.00010030,0.00014457,851.07464600,4,1
1312470952.13565993,-0.00010047,0.00014442,851.15039062,4,1
1312470952.18842721,-0.00010025,0.00014455,851.22320557,4,1
1312470952.23539615,-0.00010043,0.00014440,851.29901123,4,1
1312470952.28727651,-0.00010020,0.00014452,851.37176514,4,1
1312470952.33637309,-0.00010038,0.00014438,851.44744873,4,1
1312470952.38741136,-0.00010016,0.00014450,851.52020264,4,1
1312470952.43647814,-0.00010033,0.00014435,851.59582520,4,1
1312470952.48741245,-0.00010011,0.00014448,851.66845703,4,1
1312470952.53540540,-0.00010029,0.00014433,851.74407959,4,1
1312470952.58741903,-0.00010006,0.00014446,851.81671143,4,1
1312470952.63673663,-0.00010024,0.00014431,851.89221191,4,1
1312470952.68728638,-0.00010002,0.00014443,851.96478271,4,1
1312470952.73635817,-0.00010019,0.00014429,852.04022217,4,1
1312470952.78741622,-0.00009997,0.00014441,852.11267090,4,1
1312470952.84455371,-0.00010015,0.00014426,852.18811035,4,1
1312470952.88732266,-0.00010012,0.00014425,852.27673340,4,1
1312470952.93543553,-0.00010010,0.00014424,852.33581543,4,1
1312470952.98443174,-0.00009988,0.00014437,852.40814209,4,1
1312470953.03933096,-0.00010005,0.00014422,852.48339844,4,1
1312470953.08730245,-0.00009983,0.00014434,852.55566406,4,1
1312470953.13536882,-0.00010001,0.00014420,852.63085938,4,1
1312470953.18742299,-0.00009979,0.00014432,852.70306396,4,1
1312470953.23548317,-0.00009996,0.00014417,852.77819824,4,1
1312470953.28742480,-0.00009974,0.00014430,852.85034180,4,1
1312470953.33546853,-0.00009991,0.00014415,852.92541504,4,1
1312470953.38439703,-0.00009969,0.00014428,852.99749756,4,1
1312470953.43629122,-0.00009987,0.00014413,853.07250977,4,1
1312470953.48727870,-0.00009965,0.00014426,853.14453125,4,1
1312470953.53532124,-0.00009982,0.00014411,853.21948242,4,1
1312470953.58730602,-0.00009960,0.00014423,853.29144287,4,1
1312470953.63531089,-0.00009978,0.00014409,853.36633301,4,1
1312470953.69623303,-0.00009955,0.00014421,853.43823242,4,1
1312470953.73630953,-0.00009953,0.00014420,853.52630615,4,1
1312470953.78733850,-0.00009951,0.00014419,853.58496094,4,1
1312470953.84442210,-0.00009968,0.00014404,853.65972900,4,1
1312470953.88728142,-0.00009966,0.00014403,853.74761963,4,1
1312470953.93641376,-0.00009964,0.00014402,853.80627441,4,1
1312470953.99642205,-0.00009942,0.00014415,853.87799072,4,1
1312470954.03630185,-0.00009939,0.00014413,853.96582031,4,1
1312470954.08733845,-0.00009937,0.00014412,854.02435303,4,1
1312470954.14463186,-0.00009954,0.00014398,854.09899902,4,1
1312470954.18444538,-0.00009952,0.00014396,854.18670654,4,1
1312470954.23535800,-0.00009950,0.00014396,854.24517822,4,1
1312470954.29633379,-0.00009928,0.00014408,854.31671143,4,1
1312470954.33627748,-0.00009925,0.00014407,854.40429688,4,1
1312470954.38428664,-0.00009923,0.00014406,854.46270752,4,1
1312470954.44728899,-0.00009941,0.00014391,854.53710938,4,1
1312470954.48842907,-0.00009938,0.00014390,854.62457275,4,1
1312470954.53545427,-0.00009936,0.00014389,854.68286133,4,1
1312470954.59633183,-0.00009914,0.00014402,854.75421143,4,1
1312470954.63628983,-0.00009911,0.00014400,854.84161377,4,1
1312470954.68729138,-0.00009909,0.00014399,854.89984131,4,1
1312470954.74442887,-0.00009927,0.00014385,854.97399902,4,1
1312470954.78451967,-0.00009924,0.00014383,855.06127930,4,1
1312470954.83539844,-0.00009922,0.00014382,855.11938477,4,1
1312470954.89643455,-0.00009900,0.00014395,855.19055176,4,1
1312470954.93674827,-0.00009897,0.00014394,855.27764893,4,1
1312470954.98443198,-0.00009895,0.00014393,855.33569336,4,1
1312470955.04729056,-0.00009913,0.00014378,855.40966797,4,1
1312470955.08430290,-0.00009910,0.00014377,855.49664307,4,1
1312470955.13627410,-0.00009908,0.00014376,855.55462646,4,1
1312470955.19642806,-0.00009886,0.00014388,855.62554932,4,1
1312470955.23629880,-0.00009884,0.00014387,855.71234131,4,1
1312470955.28843904,-0.00009882,0.00014386,855.77020264,4,1
1312470955.34462094,-0.00009899,0.00014372,855.84393311,4,1
1312470955.38726330,-0.00009896,0.00014370,855.93066406,4,1
1312470955.43539858,-0.00009895,0.00014369,855.98840332,4,1
1312470955.49629092,-0.00009873,0.00014382,856.05914307,4,1
1312470955.53643107,-0.00009870,0.00014380,856.14575195,4,1
1312470955.58728862,-0.00009868,0.00014380,856.20349121,4,1
1312470955.64443898,-0.00009885,0.00014365,856.27703857,4,1
1312470955.68740439,-0.00009883,0.00014364,856.36358643,4,1
1312470955.73540854,-0.00009881,0.00014363,856.42120361,4,1
1312470955.79540658,-0.00009859,0.00014375,856.49176025,4,1
1312470955.84445548,-0.00009856,0.00014374,856.57818604,4,1
1312470955.89528465,-0.00009873,0.00014359,856.65161133,4,1
1312470955.94846392,-0.00009851,0.00014372,856.72204590,4,1
1312470955.99643278,-0.00009869,0.00014357,856.79541016,4,1
1312470956.04432797,-0.00009847,0.00014369,856.86584473,4,1
1312470956.09641576,-0.00009864,0.00014355,856.93908691,4,1
1312470956.14440751,-0.00009842,0.00014367,857.00946045,4,1
1312470956.19641423,-0.00009860,0.00014353,857.08270264,4,1
1312470956.24430823,-0.00009838,0.00014365,857.15295410,4,1
1312470956.29530025,-0.00009855,0.00014350,857.22613525,4,1
1312470956.34841037,-0.00009833,0.00014363,857.29638672,4,1
1312470956.39641118,-0.00009851,0.00014348,857.36950684,4,1
1312470956.44430423,-0.00009829,0.00014361,857.43969727,4,1
1312470956.49633813,-0.00009846,0.00014346,857.51275635,4,1
1312470956.54434752,-0.00009824,0.00014359,857.58282471,4,1
1312470956.59633660,-0.00009841,0.00014344,857.65582275,4,1
1312470956.64434314,-0.00009820,0.00014356,857.72589111,4,1
1312470956.69634938,-0.00009837,0.00014342,857.79876709,4,1
1312470956.74433279,-0.00009815,0.00014354,857.86871338,4,1
1312470956.79633737,-0.00009832,0.00014340,857.94158936,4,1
1312470956.84431601,-0.00009811,0.00014352,858.01147461,4,1
1312470956.89570904,-0.00009828,0.00014337,858.08428955,4,1
1312470956.94443059,-0.00009806,0.00014350,858.15411377,4,1
1312470956.99601483,-0.00009823,0.00014335,858.22686768,4,1
1312470957.04728627,-0.00009801,0.00014348,858.29663086,4,1
1312470957.09615016,-0.00009819,0.00014333,858.36932373,4,1
1312470957.14823055,-0.00009797,0.00014345,858.43902588,4,1
1312470957.19646454,-0.00009814,0.00014331,858.51159668,4,1
1312470957.24435210,-0.00009792,0.00014343,858.58123779,4,1
1312470957.29631948,-0.00009810,0.00014329,858.65374756,4,1
1312470957.34442592,-0.00009788,0.00014341,858.72326660,4,1
1312470957.39642715,-0.00009805,0.00014326,858.79571533,4,1
1312470957.44850445,-0.00009783,0.00014339,858.86517334,4,1
1312470957.49629593,-0.00009801,0.00014324,858.93750000,4,1
1312470957.54443002,-0.00009779,0.00014337,859.00689697,4,1
1312470957.59642196,-0.00009796,0.00014322,859.07916260,4,1
1312470957.64739537,-0.00009774,0.00014334,859.14849854,4,1
1312470957.69642997,-0.00009792,0.00014320,859.22064209,4,1
1312470957.74442053,-0.00009770,0.00014332,859.28991699,4,1
1312470957.79644203,-0.00009787,0.00014318,859.36199951,4,1
1312470957.84444475,-0.00009765,0.00014330,859.43121338,4,1
1312470957.89631510,-0.00009783,0.00014316,859.50323486,4,1
1312470957.94842029,-0.00009761,0.00014328,859.57238770,4,1
1312470957.99642944,-0.00009778,0.00014313,859.64434814,4,1
1312470958.03630018,-0.00009757,0.00014326,859.71343994,4,1
1312470958.09644032,-0.00009755,0.00014325,859.76983643,4,1
1312470958.14428806,-0.00009752,0.00014324,859.85437012,4,1
1312470958.19641709,-0.00009769,0.00014309,859.92620850,4,1
1312470958.24843049,-0.00009748,0.00014321,859.99523926,4,1
1312470958.29628587,-0.00009765,0.00014307,860.06701660,4,1
1312470958.34843898,-0.00009743,0.00014319,860.13598633,4,1
1312470958.39643979,-0.00009760,0.00014305,860.20770264,4,1
1312470958.44444084,-0.00009739,0.00014317,860.27661133,4,1
1312470958.49643016,-0.00009756,0.00014303,860.34832764,4,1
1312470958.54731083,-0.00009734,0.00014315,860.41711426,4,1
1312470958.59643102,-0.00009751,0.00014301,860.48883057,4,1
1312470958.64462805,-0.00009730,0.00014313,860.55761719,4,1
1312470958.69529223,-0.00009747,0.00014298,860.62921143,4,1
1312470958.74749374,-0.00009725,0.00014311,860.69793701,4,1
1312470958.79641891,-0.00009742,0.00014296,860.76947021,4,1
1312470958.84445620,-0.00009721,0.00014308,860.83819580,4,1
1312470958.89533186,-0.00009738,0.00014294,860.90966797,4,1
1312470958.94731808,-0.00009717,0.00014306,860.97833252,4,1
1312470958.99636936,-0.00009734,0.00014292,861.04974365,4,1
1312470959.04669690,-0.00009712,0.00014304,861.11834717,4,1
1312470959.09538150,-0.00009729,0.00014290,861.18975830,4,1
1312470959.14841771,-0.00009708,0.00014302,861.25830078,4,1
1312470959.19556379,-0.00009725,0.00014288,861.32965088,4,1
1312470959.24730659,-0.00009703,0.00014300,861.39807129,4,1
1312470959.29532433,-0.00009720,0.00014285,861.46936035,4,1
1312470959.34734511,-0.00009699,0.00014297,861.53771973,4,1
1312470959.39634824,-0.00009716,0.00014283,861.60894775,4,1
1312470959.44429278,-0.00009694,0.00014295,861.67724609,4,1
1312470959.49629474,-0.00009712,0.00014281,861.74835205,4,1
1312470959.54728150,-0.00009690,0.00014293,861.81658936,4,1
1312470959.59530878,-0.00009707,0.00014279,861.88763428,4,1
1312470959.64727926,-0.00009686,0.00014291,861.95581055,4,1
1312470959.69642043,-0.00009703,0.00014277,862.02673340,4,1
1312470959.74521995,-0.00009681,0.00014289,862.09484863,4,1
1312470959.79632902,-0.00009698,0.00014275,862.16571045,4,1
1312470959.84403539,-0.00009677,0.00014287,862.23376465,4,1
1312470959.89636612,-0.00009694,0.00014273,862.30456543,4,1
1312470959.94732165,-0.00009673,0.00014285,862.37261963,4,1
1312470959.99530244,-0.00009690,0.00014271,862.44335938,4,1
1312470960.04908633,-0.00009668,0.00014282,862.51135254,4,1
1312470960.09538674,-0.00009685,0.00014268,862.58203125,4,1
1312470960.14505124,-0.00009664,0.00014280,862.64996338,4,1
1312470960.19541264,-0.00009681,0.00014266,862.72058105,4,1
1312470960.24728680,-0.00009660,0.00014278,862.78839111,4,1
1312470960.29568219,-0.00009676,0.00014264,862.85888672,4,1
1312470960.34728861,-0.00009655,0.00014276,862.92663574,4,1
1312470960.39592338,-0.00009672,0.00014262,862.99707031,4,1
1312470960.44441724,-0.00009651,0.00014274,863.06469727,4,1
1312470960.49634695,-0.00009668,0.00014260,863.13507080,4,1
1312470960.54727888,-0.00009647,0.00014272,863.20263672,4,1
1312470960.59642339,-0.00009663,0.00014258,863.27288818,4,1
1312470960.64729428,-0.00009642,0.00014270,863.34039307,4,1
1312470960.69632626,-0.00009659,0.00014256,863.41064453,4,1
1312470960.74442959,-0.00009638,0.00014267,863.47802734,4,1
1312470960.79643297,-0.00009655,0.00014254,863.54815674,4,1
1312470960.84442997,-0.00009634,0.00014265,863.61547852,4,1
1312470960.89635754,-0.00009650,0.00014252,863.68554688,4,1
1312470960.94441962,-0.00009629,0.00014263,863.75280762,4,1
1312470960.99636889,-0.00009646,0.00014249,863.82281494,4,1
1312470961.04743958,-0.00009625,0.00014261,863.89001465,4,1
1312470961.09632134,-0.00009642,0.00014247,863.95989990,4,1
1312470961.14836502,-0.00009621,0.00014259,864.02703857,4,1
1312470961.19642830,-0.00009638,0.00014245,864.09686279,4,1
1312470961.24442530,-0.00009617,0.00014257,864.16394043,4,1
1312470961.29642868,-0.00009633,0.00014243,864.23370361,4,1
1312470961.34730959,-0.00009612,0.00014255,864.30072021,4,1
1312470961.39644194,-0.00009629,0.00014241,864.37042236,4,1
1312470961.44443965,-0.00009608,0.00014253,864.43731689,4,1
1312470961.49633384,-0.00009625,0.00014239,864.50695801,4,1
1312470961.54844093,-0.00009604,0.00014251,864.57385254,4,1
1312470961.59645224,-0.00009620,0.00014237,864.64337158,4,1
1312470961.64450860,-0.00009600,0.00014248,864.71020508,4,1
1312470961.69630480,-0.00009616,0.00014235,864.77966309,4,1
1312470961.74740386,-0.00009595,0.00014246,864.84643555,4,1
1312470961.79644346,-0.00009612,0.00014233,864.91589355,4,1
1312470961.84844542,-0.00009591,0.00014244,864.98260498,4,1
1312470961.89528084,-0.00009608,0.00014231,865.05200195,4,1
1312470961.94845295,-0.00009587,0.00014242,865.11865234,4,1
1312470961.99629283,-0.00009604,0.00014229,865.18792725,4,1
1312470962.04443169,-0.00009583,0.00014240,865.25451660,4,1
1312470962.09542656,-0.00009599,0.00014226,865.32379150,4,1
1312470962.14442015,-0.00009579,0.00014238,865.39038086,4,1
1312470962.19646811,-0.00009595,0.00014224,865.45959473,4,1
1312470962.24743509,-0.00009574,0.00014236,865.52606201,4,1
1312470962.29530025,-0.00009591,0.00014222,865.59521484,4,1
1312470962.34834385,-0.00009570,0.00014234,865.66162109,4,1
